FW5642 Weather Reports


time (UTC)temp
C
wind
direction
speed
KPH
gust
KPH
rain 1hr
cm
rain 24hr
cm
rain mn
cm
humidity
%
barometer
mb
20260505180036 22 266 8.0 20.9 0.00 0.00 0.00 54 1014.8
20260505174532 21 279 9.7 19.3 0.00 0.00 0.00 56 1015.0
20260505173106 20 273 9.7 22.5 0.00 0.00 0.00 58 1014.9
20260505171536 19 275 9.7 20.9 0.00 0.00 0.00 61 1014.9
20260505170038 18 280 9.7 19.3 0.00 0.00 0.00 61 1014.9
20260505163032 19 299 11.3 29.0 0.00 0.00 0.00 61 1014.9
20260505153033 17 307 8.0 17.7 0.00 0.00 0.00 66 1014.7
20260505151532 16 300 8.0 19.3 0.00 0.00 0.00 69 1014.6
20260505124531 15 324 6.4 12.9 0.00 0.00 0.00 72 1013.3
20260505123037 15 323 4.8 16.1 0.00 0.00 0.00 71 1013.1
20260505120152 16 300 8.0 17.7 0.00 0.00 0.00 69 1012.9
20260505114535 16 286 8.0 16.1 0.00 0.00 0.00 69 1012.8
20260505113038 16 294 6.4 17.7 0.00 0.00 0.00 69 1012.7
20260505101535 16 279 9.7 24.1 0.00 0.00 0.00 67 1012.0
20260505100045 16 296 8.0 20.9 0.00 0.00 0.00 68 1012.0
20260505094534 16 291 8.0 25.7 0.00 0.00 0.00 68 1011.9
20260505093033 16 300 8.0 17.7 0.00 0.00 0.00 69 1011.9
20260505091534 16 305 6.4 16.1 0.00 0.00 0.00 68 1011.7
20260505090037 17 317 6.4 12.9 0.00 0.00 0.00 65 1011.6
20260505083035 17 299 4.8 17.7 0.00 0.00 0.00 65 1011.6
20260505081530 17 300 6.4 19.3 0.00 0.00 0.00 65 1011.5
20260505074531 17 297 4.8 17.7 0.00 0.00 0.00 65 1011.4
20260505064534 17 276 1.6 9.7 0.00 0.00 0.00 63 1011.0
20260505063106 18 268 0.0 9.7 0.00 0.00 0.00 60 1011.0
20260505060142 18 288 4.8 17.7 0.00 0.00 0.00 58 1010.8
20260505054641 18 279 3.2 12.9 0.00 0.00 0.00 57 1010.7
20260505053143 19 257 1.6 16.1 0.00 0.00 0.00 55 1010.6
20260505051537 20 266 6.4 19.3 0.00 0.00 0.00 53 1010.4
20260505040153 21 267 9.7 27.4 0.00 0.00 0.00 50 1009.6
20260505040144 21 265 8.0 29.0 0.00 0.00 0.00 50 1009.4
20260505033030 21 275 6.4 16.1 0.00 0.00 0.00 50 1009.2
20260505031533 21 269 6.4 25.7 0.00 0.00 0.00 49 1009.0
20260505030037 22 268 6.4 20.9 0.00 0.00 0.00 47 1008.8
20260505013036 25 274 11.3 29.0 0.00 0.00 0.00 41 1008.4
20260505011536 26 269 14.5 29.0 0.00 0.00 0.00 41 1008.3
20260505004653 26 276 12.9 27.4 0.00 0.00 0.00 39 1008.3
20260505003037 27 282 12.9 25.7 0.00 0.00 0.00 38 1008.4
20260505000040 27 288 12.9 29.0 0.00 0.00 0.00 37 1008.5
20260504234535 27 290 14.5 29.0 0.00 0.00 0.00 37 1008.5
20260504233142 28 285 14.5 29.0 0.00 0.00 0.00 37 1008.5
20260504231607 28 287 14.5 29.0 0.00 0.00 0.00 37 1008.6
20260504230036 28 293 11.3 24.1 0.00 0.00 0.00 37 1008.8
20260504224537 28 299 12.9 22.5 0.00 0.00 0.00 37 1009.0
20260504223106 28 290 11.3 22.5 0.00 0.00 0.00 37 1009.2
20260504221606 28 295 11.3 22.5 0.00 0.00 0.00 37 1009.3
20260504220032 28 300 11.3 25.7 0.00 0.00 0.00 38 1009.4
20260504214536 28 293 9.7 22.5 0.00 0.00 0.00 38 1009.6
20260504213031 28 296 9.7 22.5 0.00 0.00 0.00 38 1009.7
20260504210036 27 295 6.4 16.1 0.00 0.00 0.00 39 1010.0
20260504204532 27 287 6.4 16.1 0.00 0.00 0.00 39 1010.2
20260504203033 26 299 6.4 16.1 0.00 0.00 0.00 40 1010.3
20260504201641 26 301 8.0 16.1 0.00 0.00 0.00 41 1010.5
20260504200037 26 308 8.0 22.5 0.00 0.00 0.00 42 1010.7
20260504194643 26 301 8.0 19.3 0.00 0.00 0.00 41 1010.7
20260504193031 26 316 9.7 20.9 0.00 0.00 0.00 40 1010.8
20260504190151 26 306 9.7 24.1 0.00 0.00 0.00 40 1011.0
20260504184536 26 302 6.4 17.7 0.00 0.00 0.00 41 1011.0
20260504183031 26 291 6.4 17.7 0.00 0.00 0.00 42 1011.1